ARG1898 SAWC-SAWH

Flight info

Callsign ARG1898
Flight time 0h 56m
Altitude 33000
Route DEVIS UW52 GAL UW42 GRA DCT USU
Aircraft B738/M-SDE2E3FGHIRWXY/LB1

Departure

Time 2026-05-07 00:27
Airport El Calafate - Commander Armando Tola International Airport (SAWC)

Arrival

Time 2026-05-07 01:23
Airport Ushuaia - Malvinas Argentinas International Airport (SAWH)
Time Latitude Longitude Altitude Speed Heading
2026-05-07 00:27 -50.27795 -72.01343 2065 ft 211 kts 84°
2026-05-07 00:27 -50.27650 -71.98997 2769 ft 224 kts 84°
2026-05-07 00:27 -50.27498 -71.96492 3281 ft 240 kts 84°
2026-05-07 00:28 -50.27362 -71.93767 3714 ft 259 kts 91°
2026-05-07 00:28 -50.27920 -71.91082 4527 ft 265 kts 127°
2026-05-07 00:28 -50.29138 -71.88921 5552 ft 267 kts 134°
2026-05-07 00:28 -50.30415 -71.86783 6498 ft 271 kts 134°
2026-05-07 00:29 -50.31712 -71.84596 7403 ft 275 kts 134°
2026-05-07 00:29 -50.33008 -71.82378 8352 ft 278 kts 133°
2026-05-07 00:30 -50.36998 -71.75407 10588 ft 308 kts 133°
2026-05-07 00:30 -50.38475 -71.72791 10882 ft 331 kts 132°
2026-05-07 00:30 -50.40020 -71.70039 11551 ft 340 kts 131°
2026-05-07 00:30 -50.41587 -71.67235 12349 ft 345 kts 131°
2026-05-07 00:31 -50.43176 -71.64382 13145 ft 350 kts 131°
2026-05-07 00:31 -50.44794 -71.61471 13918 ft 356 kts 130°
2026-05-07 00:31 -50.46437 -71.58509 14601 ft 362 kts 130°
2026-05-07 00:31 -50.48092 -71.55522 15297 ft 368 kts 130°
2026-05-07 00:32 -50.49757 -71.52514 15977 ft 373 kts 130°
2026-05-07 00:32 -50.51474 -71.49405 16666 ft 379 kts 130°
2026-05-07 00:32 -50.53215 -71.46252 17345 ft 384 kts 130°
2026-05-07 00:32 -50.54979 -71.43052 18023 ft 390 kts 130°
2026-05-07 00:33 -50.56770 -71.39801 18643 ft 396 kts 130°
2026-05-07 00:33 -50.58582 -71.36507 19243 ft 400 kts 130°
2026-05-07 00:33 -50.60415 -71.33170 19853 ft 405 kts 130°
2026-05-07 00:33 -50.62244 -71.29837 20440 ft 409 kts 130°
2026-05-07 00:34 -50.64109 -71.26432 21023 ft 414 kts 129°
2026-05-07 00:34 -50.65900 -71.23158 21572 ft 418 kts 129°
2026-05-07 00:34 -50.67616 -71.20018 22077 ft 422 kts 129°
2026-05-07 00:34 -50.69539 -71.16495 22636 ft 427 kts 129°
2026-05-07 00:35 -50.71483 -71.12929 23185 ft 431 kts 129°
2026-05-07 00:35 -50.73448 -71.09319 23699 ft 435 kts 129°
2026-05-07 00:35 -50.75432 -71.05669 24189 ft 438 kts 129°
2026-05-07 00:35 -50.76145 -71.04357 24368 ft 439 kts 129°
2026-05-07 00:36 -50.78129 -71.00698 24861 ft 441 kts 129°
2026-05-07 00:36 -50.80077 -70.97104 25310 ft 444 kts 129°
2026-05-07 00:36 -50.82090 -70.93382 25755 ft 447 kts 129°
2026-05-07 00:36 -50.84122 -70.89620 26179 ft 450 kts 129°
2026-05-07 00:37 -50.86139 -70.85881 26540 ft 454 kts 129°
2026-05-07 00:37 -50.88206 -70.82043 26933 ft 458 kts 129°
2026-05-07 00:37 -50.90282 -70.78182 27361 ft 461 kts 129°
2026-05-07 00:37 -50.92366 -70.74300 27794 ft 463 kts 129°
2026-05-07 00:38 -50.94461 -70.70393 28221 ft 466 kts 129°
2026-05-07 00:38 -50.96560 -70.66472 28618 ft 468 kts 129°
2026-05-07 00:38 -50.98677 -70.62510 28994 ft 471 kts 129°
2026-05-07 00:38 -51.00806 -70.58521 29360 ft 474 kts 129°
2026-05-07 00:39 -51.02935 -70.54527 29824 ft 474 kts 129°
2026-05-07 00:39 -51.05037 -70.50577 30323 ft 472 kts 129°
2026-05-07 00:39 -51.07125 -70.46567 30796 ft 470 kts 128°
2026-05-07 00:39 -51.09139 -70.42490 31221 ft 469 kts 127°
2026-05-07 00:40 -51.11119 -70.38374 31615 ft 468 kts 127°
2026-05-07 00:40 -51.13092 -70.34242 32020 ft 468 kts 127°
2026-05-07 00:40 -51.15065 -70.30115 32446 ft 466 kts 127°
2026-05-07 00:40 -51.17035 -70.26010 32872 ft 465 kts 127°
2026-05-07 00:41 -51.19006 -70.21915 33033 ft 469 kts 128°
2026-05-07 00:41 -51.21011 -70.17754 33033 ft 476 kts 128°
2026-05-07 00:41 -51.25101 -70.09268 33034 ft 488 kts 128°
2026-05-07 00:42 -51.29277 -70.00575 33040 ft 498 kts 127°
2026-05-07 00:42 -51.33447 -69.91862 33028 ft 507 kts 127°
2026-05-07 00:43 -51.37720 -69.82902 33028 ft 512 kts 127°
2026-05-07 00:43 -51.42065 -69.73761 33011 ft 512 kts 127°
2026-05-07 00:44 -51.46333 -69.64747 33015 ft 510 kts 127°
2026-05-07 00:44 -51.50621 -69.55659 33015 ft 509 kts 127°
2026-05-07 00:45 -51.54889 -69.46585 33009 ft 508 kts 127°
2026-05-07 00:45 -51.59252 -69.37648 33002 ft 508 kts 134°
2026-05-07 00:46 -51.64721 -69.30676 33055 ft 505 kts 151°
2026-05-07 00:46 -51.71076 -69.25970 33049 ft 503 kts 159°
2026-05-07 00:47 -51.77532 -69.21620 33035 ft 503 kts 159°
2026-05-07 00:47 -51.83970 -69.17186 33031 ft 503 kts 159°
2026-05-07 00:48 -51.90391 -69.12681 33026 ft 503 kts 158°
2026-05-07 00:48 -51.96810 -69.08143 33014 ft 503 kts 158°
2026-05-07 00:49 -52.03220 -69.03601 33020 ft 503 kts 158°
2026-05-07 00:49 -52.09443 -68.99182 33018 ft 503 kts 158°
2026-05-07 00:50 -52.15846 -68.94621 33024 ft 502 kts 158°
2026-05-07 00:50 -52.22255 -68.90043 33022 ft 502 kts 158°
2026-05-07 00:51 -52.28640 -68.85467 33020 ft 501 kts 158°
2026-05-07 00:51 -52.35029 -68.80874 33026 ft 501 kts 158°
2026-05-07 00:52 -52.41419 -68.76265 33028 ft 501 kts 158°
2026-05-07 00:52 -52.47800 -68.71648 33030 ft 500 kts 158°
2026-05-07 00:53 -52.54134 -68.67051 33032 ft 500 kts 158°
2026-05-07 00:53 -52.60509 -68.62409 33037 ft 501 kts 157°
2026-05-07 00:54 -52.66880 -68.57755 33038 ft 500 kts 157°
2026-05-07 00:54 -52.73240 -68.53094 33040 ft 500 kts 157°
2026-05-07 00:55 -52.79606 -68.48414 33048 ft 501 kts 157°
2026-05-07 00:55 -52.85933 -68.43754 33042 ft 501 kts 157°
2026-05-07 00:56 -52.92307 -68.39046 33051 ft 501 kts 157°
2026-05-07 00:56 -52.97639 -68.35097 33054 ft 501 kts 157°
2026-05-07 00:57 -53.03961 -68.30398 33063 ft 501 kts 157°
2026-05-07 00:57 -53.10323 -68.25654 33058 ft 501 kts 157°
2026-05-07 00:58 -53.16683 -68.20897 33068 ft 501 kts 157°
2026-05-07 00:58 -53.23036 -68.16129 33068 ft 501 kts 157°
2026-05-07 00:59 -53.32553 -68.08957 33068 ft 499 kts 157°
2026-05-07 01:00 -53.38895 -68.04159 32639 ft 504 kts 157°
2026-05-07 01:00 -53.42047 -68.01768 32216 ft 502 kts 157°
2026-05-07 01:00 -53.45103 -67.99447 31779 ft 502 kts 156°
2026-05-07 01:00 -53.48280 -67.97029 31321 ft 502 kts 156°
2026-05-07 01:01 -53.51462 -67.94603 30860 ft 502 kts 156°
2026-05-07 01:01 -53.54641 -67.92176 30397 ft 502 kts 156°
2026-05-07 01:01 -53.57828 -67.89739 29896 ft 502 kts 156°
2026-05-07 01:01 -53.61006 -67.87303 29350 ft 503 kts 156°
2026-05-07 01:02 -53.64191 -67.84859 28845 ft 502 kts 156°
2026-05-07 01:02 -53.67375 -67.82412 28353 ft 503 kts 156°
2026-05-07 01:02 -53.70558 -67.79962 27843 ft 504 kts 156°
2026-05-07 01:02 -53.73777 -67.77628 27350 ft 503 kts 162°
2026-05-07 01:03 -53.77182 -67.76359 26856 ft 500 kts 176°
2026-05-07 01:03 -53.80647 -67.76356 26346 ft 498 kts 189°
2026-05-07 01:03 -53.84031 -67.77504 25827 ft 495 kts 199°
2026-05-07 01:03 -53.87329 -67.79203 25330 ft 494 kts 200°
2026-05-07 01:04 -53.90595 -67.80912 24819 ft 489 kts 200°
2026-05-07 01:04 -53.93834 -67.82594 24328 ft 485 kts 200°
2026-05-07 01:04 -53.97060 -67.84247 23843 ft 482 kts 199°
2026-05-07 01:04 -54.00240 -67.85856 23159 ft 472 kts 199°
2026-05-07 01:05 -54.03378 -67.87430 22283 ft 468 kts 199°
2026-05-07 01:05 -54.06491 -67.88987 21370 ft 464 kts 199°
2026-05-07 01:05 -54.09548 -67.90513 20884 ft 452 kts 199°
2026-05-07 01:05 -54.12501 -67.91988 20401 ft 446 kts 198°
2026-05-07 01:06 -54.15496 -67.93491 19938 ft 451 kts 198°
2026-05-07 01:06 -54.18526 -67.95015 19463 ft 451 kts 198°
2026-05-07 01:06 -54.21522 -67.96523 18994 ft 446 kts 198°
2026-05-07 01:06 -54.24486 -67.98016 18537 ft 442 kts 198°
2026-05-07 01:07 -54.27423 -67.99498 18048 ft 438 kts 198°
2026-05-07 01:07 -54.30338 -68.00972 17558 ft 434 kts 198°
2026-05-07 01:07 -54.33222 -68.02432 17107 ft 427 kts 198°
2026-05-07 01:07 -54.36026 -68.03852 16663 ft 415 kts 198°
2026-05-07 01:08 -54.38737 -68.05228 16237 ft 406 kts 198°
2026-05-07 01:08 -54.41417 -68.06592 15829 ft 398 kts 198°
2026-05-07 01:08 -54.44055 -68.07935 15408 ft 392 kts 197°
2026-05-07 01:08 -54.46660 -68.09263 15008 ft 390 kts 197°
2026-05-07 01:09 -54.49299 -68.10582 14585 ft 404 kts 197°
2026-05-07 01:09 -54.51947 -68.11955 14227 ft 390 kts 197°
2026-05-07 01:09 -54.54480 -68.13271 13749 ft 370 kts 197°
2026-05-07 01:09 -54.56889 -68.14510 13331 ft 351 kts 196°
2026-05-07 01:10 -54.59173 -68.15677 12963 ft 334 kts 197°
2026-05-07 01:10 -54.61352 -68.16789 12634 ft 319 kts 197°
2026-05-07 01:10 -54.63430 -68.17859 12302 ft 306 kts 197°
2026-05-07 01:10 -54.65432 -68.18890 11956 ft 295 kts 197°
2026-05-07 01:11 -54.67379 -68.19893 11638 ft 288 kts 197°
2026-05-07 01:11 -54.69262 -68.20865 11327 ft 285 kts 197°
2026-05-07 01:11 -54.71161 -68.21847 11019 ft 284 kts 197°
2026-05-07 01:11 -54.73057 -68.22827 10739 ft 286 kts 197°
2026-05-07 01:12 -54.74967 -68.23815 10637 ft 287 kts 197°
2026-05-07 01:12 -54.76886 -68.24809 10515 ft 288 kts 197°
2026-05-07 01:12 -54.78792 -68.25797 10366 ft 281 kts 197°
2026-05-07 01:12 -54.80618 -68.26739 10231 ft 266 kts 195°
2026-05-07 01:13 -54.82395 -68.26912 10104 ft 251 kts 166°
2026-05-07 01:13 -54.83919 -68.25646 9882 ft 242 kts 141°
2026-05-07 01:13 -54.85050 -68.23505 9609 ft 243 kts 121°
2026-05-07 01:13 -54.85827 -68.20872 9309 ft 247 kts 114°
2026-05-07 01:14 -54.86518 -68.18111 8993 ft 250 kts 113°
2026-05-07 01:14 -54.87207 -68.15308 8677 ft 253 kts 113°
2026-05-07 01:14 -54.87895 -68.12529 8354 ft 253 kts 114°
2026-05-07 01:14 -54.88601 -68.09703 7983 ft 256 kts 114°
2026-05-07 01:15 -54.89314 -68.06868 7655 ft 257 kts 114°
2026-05-07 01:15 -54.90036 -68.04010 7323 ft 258 kts 114°
2026-05-07 01:15 -54.90760 -68.01157 7001 ft 259 kts 114°
2026-05-07 01:15 -54.91480 -67.98314 6718 ft 257 kts 114°
2026-05-07 01:16 -54.92181 -67.95544 6650 ft 241 kts 114°
2026-05-07 01:16 -54.92831 -67.92951 6532 ft 228 kts 111°
2026-05-07 01:16 -54.92952 -67.90325 6385 ft 216 kts 72°
2026-05-07 01:16 -54.92190 -67.88295 6264 ft 205 kts 40°
2026-05-07 01:17 -54.90942 -67.87250 6122 ft 192 kts
2026-05-07 01:17 -54.89664 -67.87443 5923 ft 183 kts 337°
2026-05-07 01:17 -54.88641 -67.88656 5595 ft 181 kts 309°
2026-05-07 01:17 -54.88026 -67.90517 5264 ft 176 kts 283°
2026-05-07 01:18 -54.87800 -67.92539 4998 ft 166 kts 278°
2026-05-07 01:18 -54.87573 -67.94504 4608 ft 166 kts 278°
2026-05-07 01:18 -54.87351 -67.96460 4223 ft 164 kts 278°
2026-05-07 01:18 -54.87134 -67.98403 3852 ft 163 kts 278°
2026-05-07 01:19 -54.86921 -68.00326 3592 ft 161 kts 279°
2026-05-07 01:19 -54.86707 -68.02239 3326 ft 161 kts 279°
2026-05-07 01:19 -54.86497 -68.04135 3079 ft 160 kts 279°
2026-05-07 01:19 -54.86286 -68.06036 2851 ft 160 kts 279°
2026-05-07 01:20 -54.86076 -68.07936 2611 ft 160 kts 279°
2026-05-07 01:20 -54.85869 -68.09809 2442 ft 161 kts 279°
2026-05-07 01:20 -54.85661 -68.11683 2156 ft 155 kts 279°
2026-05-07 01:20 -54.85461 -68.13488 1817 ft 148 kts 282°
2026-05-07 01:21 -54.85269 -68.15200 1769 ft 146 kts 281°
2026-05-07 01:21 -54.85063 -68.16960 1483 ft 150 kts 281°
2026-05-07 01:21 -54.84854 -68.18715 1194 ft 148 kts 282°
2026-05-07 01:21 -54.84620 -68.20441 853 ft 145 kts 283°
2026-05-07 01:22 -54.84374 -68.22112 688 ft 144 kts 283°
2026-05-07 01:22 -54.84167 -68.23797 513 ft 141 kts 275°
2026-05-07 01:22 -54.84179 -68.25500 299 ft 143 kts 265°
2026-05-07 01:22 -54.84237 -68.27173 126 ft 136 kts 266°
2026-05-07 01:23 -54.84302 -68.28714 80 ft 115 kts 266°
2026-05-07 01:23 -54.84343 -68.29834 83 ft 73 kts 266°
2026-05-07 01:23 -54.84367 -68.30473 80 ft 42 kts 267°
2026-05-07 01:23 -54.84374 -68.30903 83 ft 28 kts 291°
2026-05-07 01:24 -54.84316 -68.30961 85 ft 8 kts 354°
2026-05-07 01:24 -54.84257 -68.30968 85 ft 9 kts 356°
2026-05-07 01:24 -54.84199 -68.30975 84 ft 8 kts 356°
2026-05-07 01:24 -54.84142 -68.30982 83 ft 8 kts 356°
2026-05-07 01:25 -54.84100 -68.31003 83 ft 0 kts 320°
2026-05-07 01:25 -54.84099 -68.31005 83 ft 1 kts 326°
2026-05-07 01:25 -54.84073 -68.30998 82 ft 5 kts 13°
2026-05-07 01:25 -54.84034 -68.30996 84 ft 6 kts
2026-05-07 01:26 -54.84025 -68.30996 84 ft 0 kts 359°
2026-05-07 01:30 -54.84023 -68.30996 84 ft 2 kts 359°
2026-05-07 01:30 -54.84013 -68.31015 84 ft 2 kts 284°
2026-05-07 01:30 -54.84015 -68.31042 83 ft 2 kts 256°
2026-05-07 01:31 -54.84023 -68.31054 84 ft 1 kts 215°
2026-05-07 01:31 -54.84024 -68.31055 84 ft 0 kts 215°